Time,TemperatureF,DewpointF,PressureIn,WindDirection,WindDirectionDegrees,WindSpeedMPH,WindSpeedGustMPH,Humidity,HourlyPrecipIn,Conditions,Clouds,dailyrainin,SoftwareType,DateUTC
2013-01-17 00:00:00,31.5,24.2,30.15,West,259,9.0,9.0,74,0.00,,---,0.00,VWS V14.01,2013-01-17 05:00:00,
2013-01-17 00:01:00,31.5,24.2,30.14,West,259,9.0,9.0,74,0.00,,---,0.00,VWS V14.01,2013-01-17 05:01:00,
2013-01-17 00:03:00,31.5,24.2,30.15,West,266,9.0,11.0,74,0.00,,---,0.00,VWS V14.01,2013-01-17 05:03:00,
2013-01-17 00:08:00,31.6,24.3,30.15,West,264,10.0,13.0,74,0.00,,---,0.00,VWS V14.01,2013-01-17 05:08:00,
2013-01-17 00:13:00,31.5,24.5,30.16,West,267,8.0,13.0,75,0.00,,---,0.00,VWS V14.01,2013-01-17 05:13:00,
2013-01-17 00:18:00,31.6,24.6,30.17,West,264,8.0,13.0,75,0.00,,---,0.00,VWS V14.01,2013-01-17 05:18:00,
2013-01-17 00:23:00,31.5,24.5,30.17,WSW,255,8.0,13.0,75,0.00,,---,0.00,VWS V14.01,2013-01-17 05:23:00,
2013-01-17 00:28:00,31.4,24.4,30.16,West,264,6.0,13.0,75,0.00,,---,0.00,VWS V14.01,2013-01-17 05:28:00,
2013-01-17 00:33:00,31.3,24.6,30.15,West,277,5.0,13.0,76,0.00,,---,0.00,VWS V14.01,2013-01-17 05:33:00,
2013-01-17 00:38:00,31.3,24.3,30.14,West,266,5.0,13.0,75,0.00,,---,0.00,VWS V14.01,2013-01-17 05:38:00,
2013-01-17 00:43:00,31.2,24.2,30.15,WNW,288,5.0,13.0,75,0.00,,---,0.00,VWS V14.01,2013-01-17 05:43:00,
2013-01-17 00:48:00,31.1,24.4,30.15,West,276,4.0,13.0,76,0.00,,---,0.00,VWS V14.01,2013-01-17 05:48:00,
2013-01-17 00:53:00,30.9,24.5,30.15,West,279,6.0,13.0,77,0.00,,---,0.00,VWS V14.01,2013-01-17 05:53:00,
2013-01-17 00:58:00,30.6,24.6,30.15,West,269,7.0,13.0,78,0.00,,---,0.00,VWS V14.01,2013-01-17 05:58:00,
2013-01-17 01:00:00,30.7,24.7,30.15,West,271,6.0,13.0,78,0.00,,---,0.00,VWS V14.01,2013-01-17 06:00:00,
2013-01-17 01:03:00,30.7,24.7,30.16,West,280,5.0,7.0,78,0.00,,---,0.00,VWS V14.01,2013-01-17 06:03:00,
2013-01-17 01:08:00,30.5,24.8,30.16,West,280,6.0,7.0,79,0.00,,---,0.00,VWS V14.01,2013-01-17 06:08:00,
2013-01-17 01:13:00,30.4,24.7,30.16,West,276,5.0,7.0,79,0.00,,---,0.00,VWS V14.01,2013-01-17 06:13:00,
2013-01-17 01:18:00,30.2,24.8,30.16,WNW,282,4.0,7.0,80,0.00,,---,0.00,VWS V14.01,2013-01-17 06:18:00,
2013-01-17 01:23:00,30.2,24.8,30.16,WNW,284,6.0,7.0,80,0.00,,---,0.00,VWS V14.01,2013-01-17 06:23:00,
2013-01-17 01:28:00,30.1,24.7,30.16,WNW,287,5.0,7.0,80,0.00,,---,0.00,VWS V14.01,2013-01-17 06:28:00,
2013-01-17 01:33:00,30.1,24.7,30.16,WNW,287,2.0,7.0,80,0.00,,---,0.00,VWS V14.01,2013-01-17 06:33:00,
2013-01-17 01:38:00,30.1,24.7,30.16,West,281,2.0,7.0,80,0.00,,---,0.00,VWS V14.01,2013-01-17 06:38:00,
2013-01-17 01:43:00,30.0,24.9,30.16,WNW,288,3.0,7.0,81,0.00,,---,0.00,VWS V14.01,2013-01-17 06:43:00,
2013-01-17 01:48:00,29.9,24.8,30.16,NW,307,5.0,7.0,81,0.00,,---,0.00,VWS V14.01,2013-01-17 06:48:00,
2013-01-17 01:53:00,29.9,24.8,30.17,West,281,2.0,7.0,81,0.00,,---,0.00,VWS V14.01,2013-01-17 06:53:00,
2013-01-17 01:58:00,30.0,24.9,30.16,West,276,3.0,7.0,81,0.00,,---,0.00,VWS V14.01,2013-01-17 06:58:00,
2013-01-17 02:00:00,30.0,24.9,30.17,WNW,289,3.0,7.0,81,0.00,,---,0.00,VWS V14.01,2013-01-17 07:00:00,
2013-01-17 02:03:00,30.0,24.9,30.17,West,271,4.0,5.0,81,0.00,,---,0.00,VWS V14.01,2013-01-17 07:03:00,
2013-01-17 02:08:00,29.8,25.0,30.17,West,266,3.0,5.0,82,0.00,,---,0.00,VWS V14.01,2013-01-17 07:08:00,
2013-01-17 02:13:00,29.8,25.0,30.18,WSW,249,4.0,5.0,82,0.00,,---,0.00,VWS V14.01,2013-01-17 07:13:00,
2013-01-17 02:18:00,29.8,25.0,30.17,WSW,248,5.0,5.0,82,0.00,,---,0.00,VWS V14.01,2013-01-17 07:18:00,
2013-01-17 02:23:00,29.9,25.1,30.18,WSW,243,4.0,5.0,82,0.00,,---,0.00,VWS V14.01,2013-01-17 07:23:00,
2013-01-17 02:28:00,29.9,25.1,30.18,WSW,248,3.0,5.0,82,0.00,,---,0.00,VWS V14.01,2013-01-17 07:28:00,
2013-01-17 02:33:00,29.8,25.0,30.18,WSW,242,5.0,6.0,82,0.00,,---,0.00,VWS V14.01,2013-01-17 07:33:00,
2013-01-17 02:38:00,29.8,25.0,30.18,WSW,243,2.0,6.0,82,0.00,,---,0.00,VWS V14.01,2013-01-17 07:38:00,
2013-01-17 02:43:00,29.7,24.9,30.18,WSW,245,3.0,6.0,82,0.00,,---,0.00,VWS V14.01,2013-01-17 07:43:00,
2013-01-17 02:48:00,29.6,24.8,30.18,WSW,245,3.0,6.0,82,0.00,,---,0.00,VWS V14.01,2013-01-17 07:48:00,
2013-01-17 02:53:00,29.6,24.8,30.18,WSW,242,2.0,6.0,82,0.00,,---,0.00,VWS V14.01,2013-01-17 07:53:00,
2013-01-17 02:58:00,29.6,24.8,30.18,WSW,255,2.0,6.0,82,0.00,,---,0.00,VWS V14.01,2013-01-17 07:58:00,
2013-01-17 03:00:00,29.6,24.8,30.18,WSW,255,1.0,6.0,82,0.00,,---,0.00,VWS V14.01,2013-01-17 08:00:00,
2013-01-17 03:03:00,29.6,24.8,30.19,SW,232,3.0,4.0,82,0.00,,---,0.00,VWS V14.01,2013-01-17 08:03:00,
2013-01-17 03:08:00,29.7,24.9,30.19,SW,229,3.0,5.0,82,0.00,,---,0.00,VWS V14.01,2013-01-17 08:08:00,
2013-01-17 03:13:00,29.6,24.8,30.19,SW,228,3.0,5.0,82,0.00,,---,0.00,VWS V14.01,2013-01-17 08:13:00,
2013-01-17 03:18:00,29.6,24.8,30.20,SW,231,4.0,5.0,82,0.00,,---,0.00,VWS V14.01,2013-01-17 08:18:00,
2013-01-17 03:23:00,29.7,24.9,30.20,SW,233,3.0,5.0,82,0.00,,---,0.00,VWS V14.01,2013-01-17 08:23:00,
2013-01-17 03:28:00,29.7,24.9,30.20,WSW,249,2.0,5.0,82,0.00,,---,0.00,VWS V14.01,2013-01-17 08:28:00,
2013-01-17 03:33:00,29.7,24.9,30.20,SW,236,2.0,5.0,82,0.00,,---,0.00,VWS V14.01,2013-01-17 08:33:00,
2013-01-17 03:48:00,29.7,24.6,30.19,SW,231,3.0,5.0,81,0.00,,---,0.00,VWS V14.01,2013-01-17 08:48:00,
2013-01-17 03:54:00,29.7,24.6,30.19,SW,236,3.0,5.0,81,0.00,,---,0.00,VWS V14.01,2013-01-17 08:54:00,
2013-01-17 03:59:00,29.7,24.6,30.19,WSW,246,3.0,5.0,81,0.00,,---,0.00,VWS V14.01,2013-01-17 08:59:00,
2013-01-17 04:00:00,29.7,24.6,30.19,WSW,255,3.0,5.0,81,0.00,,---,0.00,VWS V14.01,2013-01-17 09:00:00,
2013-01-17 04:04:00,29.7,24.6,30.19,WSW,253,4.0,4.0,81,0.00,,---,0.00,VWS V14.01,2013-01-17 09:04:00,
2013-01-17 04:09:00,29.6,24.5,30.19,West,272,3.0,4.0,81,0.00,,---,0.00,VWS V14.01,2013-01-17 09:09:00,
2013-01-17 04:14:00,29.5,24.7,30.19,West,271,3.0,4.0,82,0.00,,---,0.00,VWS V14.01,2013-01-17 09:14:00,
2013-01-17 04:19:00,29.5,24.7,30.19,West,266,4.0,4.0,82,0.00,,---,0.00,VWS V14.01,2013-01-17 09:19:00,
2013-01-17 04:24:00,29.5,24.7,30.19,West,262,4.0,4.0,82,0.00,,---,0.00,VWS V14.01,2013-01-17 09:24:00,
2013-01-17 04:29:00,29.4,24.6,30.19,West,259,4.0,5.0,82,0.00,,---,0.00,VWS V14.01,2013-01-17 09:29:00,
2013-01-17 04:34:00,29.2,24.7,30.19,WSW,250,4.0,5.0,83,0.00,,---,0.00,VWS V14.01,2013-01-17 09:34:00,
2013-01-17 04:39:00,29.2,24.7,30.19,WSW,255,3.0,5.0,83,0.00,,---,0.00,VWS V14.01,2013-01-17 09:39:00,
2013-01-17 04:44:00,29.0,24.8,30.20,WSW,255,3.0,5.0,84,0.00,,---,0.00,VWS V14.01,2013-01-17 09:44:00,
2013-01-17 04:49:00,29.0,24.5,30.20,WSW,238,3.0,5.0,83,0.00,,---,0.00,VWS V14.01,2013-01-17 09:49:00,
2013-01-17 04:54:00,29.1,24.6,30.20,SW,236,3.0,5.0,83,0.00,,---,0.00,VWS V14.01,2013-01-17 09:54:00,
2013-01-17 04:59:00,29.1,24.6,30.19,WSW,249,2.0,5.0,83,0.00,,---,0.00,VWS V14.01,2013-01-17 09:59:00,
2013-01-17 05:00:00,29.1,24.6,30.19,WSW,242,2.0,5.0,83,0.00,,---,0.00,VWS V14.01,2013-01-17 10:00:00,
2013-01-17 05:04:00,29.1,24.6,30.20,WSW,245,4.0,5.0,83,0.00,,---,0.00,VWS V14.01,2013-01-17 10:04:00,
2013-01-17 05:09:00,29.2,24.7,30.20,WSW,240,3.0,5.0,83,0.00,,---,0.00,VWS V14.01,2013-01-17 10:09:00,
2013-01-17 05:14:00,29.3,24.8,30.20,WSW,243,3.0,5.0,83,0.00,,---,0.00,VWS V14.01,2013-01-17 10:14:00,
2013-01-17 05:19:00,29.4,24.6,30.19,West,259,3.0,5.0,82,0.00,,---,0.00,VWS V14.01,2013-01-17 10:19:00,
2013-01-17 05:24:00,29.4,24.6,30.20,West,262,4.0,5.0,82,0.00,,---,0.00,VWS V14.01,2013-01-17 10:24:00,
2013-01-17 05:29:00,29.4,24.6,30.20,WSW,255,4.0,5.0,82,0.00,,---,0.00,VWS V14.01,2013-01-17 10:29:00,
2013-01-17 05:34:00,29.4,24.6,30.20,WSW,253,4.0,5.0,82,0.00,,---,0.00,VWS V14.01,2013-01-17 10:34:00,
2013-01-17 05:39:00,29.4,24.9,30.20,WSW,256,4.0,5.0,83,0.00,,---,0.00,VWS V14.01,2013-01-17 10:39:00,
2013-01-17 05:44:00,29.4,24.9,30.20,West,263,4.0,5.0,83,0.00,,---,0.00,VWS V14.01,2013-01-17 10:44:00,
2013-01-17 05:49:00,29.4,24.9,30.20,West,259,3.0,5.0,83,0.00,,---,0.00,VWS V14.01,2013-01-17 10:49:00,
2013-01-17 05:54:00,29.4,24.9,30.20,West,270,3.0,5.0,83,0.00,,---,0.00,VWS V14.01,2013-01-17 10:54:00,
2013-01-17 05:59:00,29.5,25.3,30.20,West,263,3.0,5.0,84,0.00,,---,0.00,VWS V14.01,2013-01-17 10:59:00,
2013-01-17 06:00:00,29.5,25.3,30.20,West,270,3.0,5.0,84,0.00,,---,0.00,VWS V14.01,2013-01-17 11:00:00,
2013-01-17 06:04:00,29.6,25.4,30.20,West,264,4.0,4.0,84,0.00,,---,0.00,VWS V14.01,2013-01-17 11:04:00,
2013-01-17 06:09:00,29.6,25.1,30.20,West,262,4.0,5.0,83,0.00,,---,0.00,VWS V14.01,2013-01-17 11:09:00,
2013-01-17 06:14:00,29.7,25.5,30.21,West,266,4.0,5.0,84,0.00,,---,0.00,VWS V14.01,2013-01-17 11:14:00,
2013-01-17 06:19:00,29.7,25.5,30.21,West,261,2.0,5.0,84,0.00,,---,0.00,VWS V14.01,2013-01-17 11:19:00,
2013-01-17 06:24:00,29.8,25.6,30.21,West,266,3.0,5.0,84,0.00,,---,0.00,VWS V14.01,2013-01-17 11:24:00,
2013-01-17 06:29:00,29.9,25.4,30.22,West,266,3.0,5.0,83,0.00,,---,0.00,VWS V14.01,2013-01-17 11:29:00,
2013-01-17 06:34:00,29.9,25.4,30.22,West,269,3.0,5.0,83,0.00,,---,0.00,VWS V14.01,2013-01-17 11:34:00,
2013-01-17 06:39:00,30.0,25.8,30.22,West,260,3.0,5.0,84,0.00,,---,0.00,VWS V14.01,2013-01-17 11:39:00,
2013-01-17 06:44:00,30.0,25.8,30.22,West,274,2.0,5.0,84,0.00,,---,0.00,VWS V14.01,2013-01-17 11:44:00,
2013-01-17 06:49:00,30.0,25.8,30.23,West,267,3.0,5.0,84,0.00,,---,0.00,VWS V14.01,2013-01-17 11:49:00,
2013-01-17 06:54:00,30.1,25.9,30.23,West,271,2.0,5.0,84,0.00,,---,0.00,VWS V14.01,2013-01-17 11:54:00,
2013-01-17 06:59:00,30.1,26.1,30.23,West,270,3.0,3.0,85,0.00,,---,0.00,VWS V14.01,2013-01-17 11:59:00,
2013-01-17 07:00:00,30.1,26.1,30.23,West,271,3.0,5.0,85,0.00,,---,0.00,VWS V14.01,2013-01-17 12:00:00,
2013-01-17 07:04:00,30.1,25.9,30.24,West,280,3.0,4.0,84,0.00,,---,0.00,VWS V14.01,2013-01-17 12:04:00,
2013-01-17 07:09:00,30.2,26.0,30.24,WNW,291,4.0,5.0,84,0.00,,---,0.00,VWS V14.01,2013-01-17 12:09:00,
2013-01-17 07:14:00,30.1,25.9,30.24,WNW,287,2.0,5.0,84,0.00,,---,0.00,VWS V14.01,2013-01-17 12:14:00,
2013-01-17 07:19:00,30.1,26.1,30.24,WNW,283,2.0,5.0,85,0.00,,---,0.00,VWS V14.01,2013-01-17 12:19:00,
2013-01-17 07:24:00,30.0,26.0,30.24,WNW,293,3.0,5.0,85,0.00,,---,0.00,VWS V14.01,2013-01-17 12:24:00,
2013-01-17 07:30:00,30.0,26.3,30.24,WNW,290,4.0,5.0,86,0.00,,---,0.00,VWS V14.01,2013-01-17 12:30:00,
2013-01-17 07:34:00,30.1,26.4,30.24,WNW,294,3.0,5.0,86,0.00,,---,0.00,VWS V14.01,2013-01-17 12:34:00,
2013-01-17 07:40:00,30.2,26.2,30.24,NW,304,2.0,5.0,85,0.00,,---,0.00,VWS V14.01,2013-01-17 12:40:00,
2013-01-17 07:45:00,30.2,26.2,30.25,WNW,287,1.0,5.0,85,0.00,,---,0.00,VWS V14.01,2013-01-17 12:45:00,
2013-01-17 07:50:00,30.2,26.2,30.25,West,281,2.0,5.0,85,0.00,,---,0.00,VWS V14.01,2013-01-17 12:50:00,
2013-01-17 07:55:00,30.2,26.2,30.25,WNW,295,2.0,5.0,85,0.00,,---,0.00,VWS V14.01,2013-01-17 12:55:00,
2013-01-17 08:00:00,30.2,26.2,30.25,WNW,295,0.0,0.0,85,0.00,,---,0.00,VWS V14.01,2013-01-17 13:00:00,
2013-01-17 08:04:00,30.3,26.3,30.25,WNW,295,1.0,2.0,85,0.00,,---,0.00,VWS V14.01,2013-01-17 13:04:00,
2013-01-17 08:09:00,30.3,26.3,30.25,WNW,295,1.0,2.0,85,0.00,,---,0.00,VWS V14.01,2013-01-17 13:09:00,
2013-01-17 08:14:00,30.4,26.4,30.25,WNW,295,1.0,2.0,85,0.00,,---,0.00,VWS V14.01,2013-01-17 13:14:00,
2013-01-17 08:19:00,30.5,26.5,30.25,WNW,293,1.0,2.0,85,0.00,,---,0.00,VWS V14.01,2013-01-17 13:19:00,
2013-01-17 08:24:00,30.5,26.2,30.25,WNW,291,0.0,2.0,84,0.00,,---,0.00,VWS V14.01,2013-01-17 13:24:00,
2013-01-17 08:29:00,30.6,26.6,30.26,West,274,2.0,2.0,85,0.00,,---,0.00,VWS V14.01,2013-01-17 13:29:00,
2013-01-17 08:35:00,30.6,26.6,30.26,WNW,290,3.0,3.0,85,0.00,,---,0.00,VWS V14.01,2013-01-17 13:35:00,
2013-01-17 08:39:00,30.6,26.6,30.26,WNW,291,2.0,3.0,85,0.00,,---,0.00,VWS V14.01,2013-01-17 13:39:00,
2013-01-17 08:44:00,30.6,26.6,30.26,WNW,289,1.0,3.0,85,0.00,,---,0.00,VWS V14.01,2013-01-17 13:44:00,
2013-01-17 08:49:00,30.6,26.9,30.27,WNW,290,1.0,3.0,86,0.00,,---,0.00,VWS V14.01,2013-01-17 13:49:00,
2013-01-17 08:55:00,30.8,27.1,30.27,WNW,289,2.0,3.0,86,0.00,,---,0.00,VWS V14.01,2013-01-17 13:55:00,
2013-01-17 09:00:00,30.8,27.1,30.27,West,271,1.0,1.0,86,0.00,,---,0.00,VWS V14.01,2013-01-17 14:00:00,
2013-01-17 09:05:00,30.8,27.1,30.28,West,270,1.0,2.0,86,0.00,,---,0.00,VWS V14.01,2013-01-17 14:05:00,
2013-01-17 09:10:00,30.9,27.2,30.28,West,281,1.0,2.0,86,0.00,,---,0.00,VWS V14.01,2013-01-17 14:10:00,
2013-01-17 09:15:00,30.9,27.2,30.28,WNW,295,2.0,2.0,86,0.00,,---,0.00,VWS V14.01,2013-01-17 14:15:00,
2013-01-17 09:20:00,31.0,27.3,30.28,NW,307,2.0,3.0,86,0.00,,---,0.00,VWS V14.01,2013-01-17 14:20:00,
2013-01-17 09:25:00,31.2,27.2,30.28,NW,308,2.0,3.0,85,0.00,,---,0.00,VWS V14.01,2013-01-17 14:25:00,
2013-01-17 09:30:00,31.3,27.3,30.28,NW,316,3.0,4.0,85,0.00,,---,0.00,VWS V14.01,2013-01-17 14:30:00,
2013-01-17 09:35:00,31.4,27.4,30.29,NW,326,3.0,5.0,85,0.00,,---,0.00,VWS V14.01,2013-01-17 14:35:00,
2013-01-17 09:40:00,31.5,27.5,30.29,NNW,333,4.0,5.0,85,0.00,,---,0.00,VWS V14.01,2013-01-17 14:40:00,
2013-01-17 09:45:00,31.7,28.0,30.29,NW,326,4.0,5.0,86,0.00,,---,0.00,VWS V14.01,2013-01-17 14:45:00,
2013-01-17 09:50:00,31.9,27.9,30.29,NW,325,5.0,6.0,85,0.00,,---,0.00,VWS V14.01,2013-01-17 14:50:00,
2013-01-17 09:55:00,32.1,28.1,30.29,NNW,330,4.0,6.0,85,0.00,,---,0.00,VWS V14.01,2013-01-17 14:55:00,
2013-01-17 10:00:00,32.4,28.4,30.29,NNW,338,4.0,6.0,85,0.00,,---,0.00,VWS V14.01,2013-01-17 15:00:00,
2013-01-17 10:05:00,32.9,28.9,30.30,NNW,331,5.0,7.0,85,0.00,,---,0.00,VWS V14.01,2013-01-17 15:05:00,
2013-01-17 10:10:00,33.5,29.2,30.30,NNW,336,8.0,10.0,84,0.00,,---,0.00,VWS V14.01,2013-01-17 15:10:00,
2013-01-17 10:15:00,33.9,29.3,30.30,NNW,339,6.0,10.0,83,0.00,,---,0.00,VWS V14.01,2013-01-17 15:15:00,
2013-01-17 10:20:00,34.3,29.4,30.30,NNW,339,7.0,11.0,82,0.00,,---,0.00,VWS V14.01,2013-01-17 15:20:00,
2013-01-17 10:25:00,34.7,29.8,30.30,NNW,329,6.0,14.0,82,0.00,,---,0.00,VWS V14.01,2013-01-17 15:25:00,
2013-01-17 10:30:00,34.9,29.7,30.30,NNW,329,7.0,14.0,81,0.00,,---,0.00,VWS V14.01,2013-01-17 15:30:00,
2013-01-17 10:35:00,34.8,29.9,30.30,North,1,4.0,14.0,82,0.00,,---,0.00,VWS V14.01,2013-01-17 15:35:00,
2013-01-17 10:40:00,35.1,29.9,30.30,North,5,7.0,14.0,81,0.00,,---,0.00,VWS V14.01,2013-01-17 15:40:00,
2013-01-17 10:45:00,35.3,30.1,30.29,NNW,330,11.0,14.0,81,0.00,,---,0.00,VWS V14.01,2013-01-17 15:45:00,
2013-01-17 10:50:00,35.7,30.5,30.30,NNW,335,6.0,14.0,81,0.00,,---,0.00,VWS V14.01,2013-01-17 15:50:00,
2013-01-17 10:55:00,36.2,30.9,30.30,NNW,329,9.0,14.0,81,0.00,,---,0.00,VWS V14.01,2013-01-17 15:55:00,
2013-01-17 11:00:00,36.0,30.1,30.30,North,4,6.0,8.0,79,0.00,,---,0.00,VWS V14.01,2013-01-17 16:00:00,
2013-01-17 11:05:00,36.0,30.4,30.30,North,350,7.0,10.0,80,0.00,,---,0.00,VWS V14.01,2013-01-17 16:05:00,
2013-01-17 11:10:00,36.1,30.5,30.29,NNW,345,8.0,10.0,80,0.00,,---,0.00,VWS V14.01,2013-01-17 16:10:00,
2013-01-17 11:15:00,36.1,30.5,30.29,NNW,335,8.0,10.0,80,0.00,,---,0.00,VWS V14.01,2013-01-17 16:15:00,
2013-01-17 11:20:00,36.0,30.8,30.29,NNW,342,5.0,10.0,81,0.00,,---,0.00,VWS V14.01,2013-01-17 16:20:00,
2013-01-17 11:25:00,36.1,30.5,30.29,NNW,338,6.0,10.0,80,0.00,,---,0.00,VWS V14.01,2013-01-17 16:25:00,
2013-01-17 11:30:00,35.9,30.6,30.29,NW,322,6.0,10.0,81,0.00,,---,0.00,VWS V14.01,2013-01-17 16:30:00,
2013-01-17 11:35:00,36.6,31.3,30.29,NW,325,5.0,12.0,81,0.00,,---,0.00,VWS V14.01,2013-01-17 16:35:00,
2013-01-17 11:40:00,36.9,31.0,30.29,NNW,335,6.0,13.0,79,0.00,,---,0.00,VWS V14.01,2013-01-17 16:40:00,
2013-01-17 11:45:00,36.7,31.4,30.29,NW,304,4.0,13.0,81,0.00,,---,0.00,VWS V14.01,2013-01-17 16:45:00,
2013-01-17 11:50:00,36.6,31.3,30.29,North,11,4.0,13.0,81,0.00,,---,0.00,VWS V14.01,2013-01-17 16:50:00,
2013-01-17 11:55:00,37.0,31.7,30.29,NW,316,6.0,13.0,81,0.00,,---,0.00,VWS V14.01,2013-01-17 16:55:00,
2013-01-17 12:00:00,37.5,32.2,30.29,NW,320,6.0,8.0,81,0.00,,---,0.00,VWS V14.01,2013-01-17 17:00:00,
2013-01-17 12:05:00,38.0,32.1,30.28,NW,316,3.0,8.0,79,0.00,,---,0.00,VWS V14.01,2013-01-17 17:05:00,
2013-01-17 12:10:00,38.4,32.5,30.28,North,354,4.0,8.0,79,0.00,,---,0.00,VWS V14.01,2013-01-17 17:10:00,
2013-01-17 12:15:00,38.5,32.2,30.28,NNW,335,6.0,9.0,78,0.00,,---,0.00,VWS V14.01,2013-01-17 17:15:00,
2013-01-17 12:20:00,38.6,32.3,30.27,North,352,6.0,9.0,78,0.00,,---,0.00,VWS V14.01,2013-01-17 17:20:00,
2013-01-17 12:25:00,38.3,31.7,30.27,NNE,32,5.0,9.0,77,0.00,,---,0.00,VWS V14.01,2013-01-17 17:25:00,
2013-01-17 12:30:00,38.3,32.0,30.27,NW,318,6.0,9.0,78,0.00,,---,0.00,VWS V14.01,2013-01-17 17:30:00,
2013-01-17 12:35:00,38.5,32.2,30.26,NNW,339,7.0,9.0,78,0.00,,---,0.00,VWS V14.01,2013-01-17 17:35:00,
2013-01-17 12:40:00,38.7,32.8,30.26,NNW,333,5.0,9.0,79,0.00,,---,0.00,VWS V14.01,2013-01-17 17:40:00,
2013-01-17 12:45:00,39.0,32.7,30.26,NNW,337,7.0,9.0,78,0.00,,---,0.00,VWS V14.01,2013-01-17 17:45:00,
2013-01-17 12:50:00,39.0,32.7,30.26,NW,320,6.0,10.0,78,0.00,,---,0.00,VWS V14.01,2013-01-17 17:50:00,
2013-01-17 12:55:00,39.1,32.5,30.25,NNW,338,6.0,11.0,77,0.00,,---,0.00,VWS V14.01,2013-01-17 17:55:00,
2013-01-17 13:00:00,39.2,32.6,30.25,WNW,298,4.0,8.0,77,0.00,,---,0.00,VWS V14.01,2013-01-17 18:00:00,
2013-01-17 13:05:00,38.8,32.2,30.25,NW,318,7.0,13.0,77,0.00,,---,0.00,VWS V14.01,2013-01-17 18:05:00,
2013-01-17 13:10:00,39.1,33.2,30.25,NW,325,6.0,13.0,79,0.00,,---,0.00,VWS V14.01,2013-01-17 18:10:00,
2013-01-17 13:15:00,39.2,32.6,30.24,North,356,6.0,13.0,77,0.00,,---,0.00,VWS V14.01,2013-01-17 18:15:00,
2013-01-17 13:20:00,38.8,31.9,30.24,NW,315,9.0,13.0,76,0.00,,---,0.00,VWS V14.01,2013-01-17 18:20:00,
2013-01-17 13:25:00,38.9,31.7,30.24,NW,315,8.0,13.0,75,0.00,,---,0.00,VWS V14.01,2013-01-17 18:25:00,
2013-01-17 13:30:00,39.2,31.6,30.24,NW,320,8.0,14.0,74,0.00,,---,0.00,VWS V14.01,2013-01-17 18:30:00,
2013-01-17 13:35:00,39.4,32.5,30.24,NNW,328,8.0,14.0,76,0.00,,---,0.00,VWS V14.01,2013-01-17 18:35:00,
2013-01-17 13:40:00,39.6,31.3,30.24,NW,311,7.0,14.0,72,0.00,,---,0.00,VWS V14.01,2013-01-17 18:40:00,
2013-01-17 13:45:00,39.7,31.4,30.24,NNW,328,7.0,16.0,72,0.00,,---,0.00,VWS V14.01,2013-01-17 18:45:00,
2013-01-17 13:50:00,39.8,31.2,30.24,NW,315,11.0,16.0,71,0.00,,---,0.00,VWS V14.01,2013-01-17 18:50:00,
2013-01-17 13:55:00,39.5,30.5,30.24,NW,314,10.0,16.0,70,0.00,,---,0.00,VWS V14.01,2013-01-17 18:55:00,
2013-01-17 14:00:00,39.6,31.0,30.24,North,352,12.0,14.0,71,0.00,,---,0.00,VWS V14.01,2013-01-17 19:00:00,
2013-01-17 14:05:00,39.5,30.9,30.24,NW,309,9.0,14.0,71,0.00,,---,0.00,VWS V14.01,2013-01-17 19:05:00,
2013-01-17 14:10:00,39.5,30.5,30.23,WNW,301,10.0,14.0,70,0.00,,---,0.00,VWS V14.01,2013-01-17 19:10:00,
2013-01-17 14:15:00,39.1,29.8,30.23,NW,309,9.0,17.0,69,0.00,,---,0.00,VWS V14.01,2013-01-17 19:15:00,
2013-01-17 14:20:00,39.4,31.5,30.23,NW,314,9.0,17.0,73,0.00,,---,0.00,VWS V14.01,2013-01-17 19:20:00,
2013-01-17 14:26:00,39.6,30.6,30.24,NNW,329,8.0,18.0,70,0.00,,---,0.00,VWS V14.01,2013-01-17 19:26:00,
2013-01-17 14:31:00,39.5,30.2,30.23,NW,318,12.0,19.0,69,0.00,,---,0.00,VWS V14.01,2013-01-17 19:31:00,
2013-01-17 14:36:00,39.2,28.8,30.24,NW,310,11.0,20.0,66,0.00,,---,0.00,VWS V14.01,2013-01-17 19:36:00,
2013-01-17 14:41:00,39.1,28.7,30.24,NNW,329,10.0,20.0,66,0.00,,---,0.00,VWS V14.01,2013-01-17 19:41:00,
2013-01-17 14:46:00,39.2,29.9,30.24,NW,318,10.0,20.0,69,0.00,,---,0.00,VWS V14.01,2013-01-17 19:46:00,
2013-01-17 14:51:00,39.0,29.7,30.24,NW,309,16.0,23.0,69,0.00,,---,0.00,VWS V14.01,2013-01-17 19:51:00,
2013-01-17 14:56:00,38.6,29.3,30.24,NW,309,12.0,23.0,69,0.00,,---,0.00,VWS V14.01,2013-01-17 19:56:00,
2013-01-17 15:00:00,38.4,29.5,30.24,NNW,338,11.0,23.0,70,0.00,,---,0.00,VWS V14.01,2013-01-17 20:00:00,
2013-01-17 15:01:00,38.5,29.9,30.25,NNW,331,10.0,16.0,71,0.00,,---,0.00,VWS V14.01,2013-01-17 20:01:00,
2013-01-17 15:06:00,38.5,29.9,30.25,NW,315,8.0,19.0,71,0.00,,---,0.00,VWS V14.01,2013-01-17 20:06:00,
2013-01-17 15:11:00,38.5,30.3,30.25,NW,320,12.0,19.0,72,0.00,,---,0.00,VWS V14.01,2013-01-17 20:11:00,
2013-01-17 15:16:00,38.4,30.5,30.25,NW,312,9.0,19.0,73,0.00,,---,0.00,VWS V14.01,2013-01-17 20:16:00,
2013-01-17 15:21:00,38.2,29.6,30.25,NW,325,9.0,19.0,71,0.00,,---,0.00,VWS V14.01,2013-01-17 20:21:00,
2013-01-17 15:26:00,38.2,29.6,30.26,NW,314,6.0,19.0,71,0.00,,---,0.00,VWS V14.01,2013-01-17 20:26:00,
2013-01-17 15:31:00,38.2,29.3,30.26,NW,307,9.0,19.0,70,0.00,,---,0.00,VWS V14.01,2013-01-17 20:31:00,
2013-01-17 15:36:00,38.1,29.2,30.26,NNW,333,8.0,19.0,70,0.00,,---,0.00,VWS V14.01,2013-01-17 20:36:00,
2013-01-17 15:41:00,38.1,29.5,30.26,NW,326,9.0,19.0,71,0.00,,---,0.00,VWS V14.01,2013-01-17 20:41:00,
2013-01-17 15:46:00,37.9,28.6,30.26,NNW,331,7.0,19.0,69,0.00,,---,0.00,VWS V14.01,2013-01-17 20:46:00,
2013-01-17 15:51:00,38.0,28.8,30.26,NW,322,10.0,19.0,69,0.00,,---,0.00,VWS V14.01,2013-01-17 20:51:00,
2013-01-17 15:56:00,37.9,27.6,30.26,NW,326,9.0,19.0,66,0.00,,---,0.00,VWS V14.01,2013-01-17 20:56:00,
2013-01-17 16:00:00,37.9,27.9,30.26,NW,320,13.0,19.0,67,0.00,,---,0.00,VWS V14.01,2013-01-17 21:00:00,
2013-01-17 16:01:00,37.8,27.8,30.26,NNW,329,9.0,15.0,67,0.00,,---,0.00,VWS V14.01,2013-01-17 21:01:00,
2013-01-17 16:06:00,37.6,26.5,30.26,NW,314,10.0,21.0,64,0.00,,---,0.00,VWS V14.01,2013-01-17 21:06:00,
2013-01-17 16:11:00,37.5,26.1,30.26,NW,312,13.0,21.0,63,0.00,,---,0.00,VWS V14.01,2013-01-17 21:11:00,
2013-01-17 16:16:00,37.5,26.1,30.26,NW,326,12.0,23.0,63,0.00,,---,0.00,VWS V14.01,2013-01-17 21:16:00,
2013-01-17 16:21:00,37.4,26.0,30.26,NW,326,10.0,23.0,63,0.00,,---,0.00,VWS V14.01,2013-01-17 21:21:00,
2013-01-17 16:26:00,37.4,26.4,30.27,NNW,329,9.0,23.0,64,0.00,,---,0.00,VWS V14.01,2013-01-17 21:26:00,
2013-01-17 16:31:00,37.2,26.5,30.27,NNW,333,16.0,23.0,65,0.00,,---,0.00,VWS V14.01,2013-01-17 21:31:00,
2013-01-17 16:36:00,36.9,25.9,30.27,NW,316,10.0,23.0,64,0.00,,---,0.00,VWS V14.01,2013-01-17 21:36:00,
2013-01-17 16:41:00,36.8,25.4,30.27,NNW,335,8.0,23.0,63,0.00,,---,0.00,VWS V14.01,2013-01-17 21:41:00,
2013-01-17 16:46:00,36.6,25.6,30.27,NNW,337,12.0,23.0,64,0.00,,---,0.00,VWS V14.01,2013-01-17 21:46:00,
2013-01-17 16:51:00,36.4,25.0,30.28,NW,318,10.0,23.0,63,0.00,,---,0.00,VWS V14.01,2013-01-17 21:51:00,
2013-01-17 16:56:00,36.3,25.3,30.28,NW,316,7.0,23.0,64,0.00,,---,0.00,VWS V14.01,2013-01-17 21:56:00,
2013-01-17 17:00:00,36.1,25.9,30.29,NW,318,10.0,23.0,66,0.00,,---,0.00,VWS V14.01,2013-01-17 22:00:00,
2013-01-17 17:01:00,36.0,25.0,30.29,North,8,18.0,21.0,64,0.00,,---,0.00,VWS V14.01,2013-01-17 22:01:00,
2013-01-17 17:06:00,36.0,25.4,30.29,NW,311,9.0,21.0,65,0.00,,---,0.00,VWS V14.01,2013-01-17 22:06:00,
2013-01-17 17:11:00,35.8,25.6,30.29,NW,321,13.0,21.0,66,0.00,,---,0.00,VWS V14.01,2013-01-17 22:11:00,
2013-01-17 17:16:00,35.7,25.8,30.30,NW,316,6.0,21.0,67,0.00,,---,0.00,VWS V14.01,2013-01-17 22:16:00,
2013-01-17 17:21:00,35.5,25.6,30.30,NW,326,11.0,21.0,67,0.00,,---,0.00,VWS V14.01,2013-01-17 22:21:00,
2013-01-17 17:26:00,35.3,25.5,30.30,NNW,335,13.0,21.0,67,0.00,,---,0.00,VWS V14.01,2013-01-17 22:26:00,
2013-01-17 17:31:00,35.1,24.9,30.30,NNW,328,8.0,21.0,66,0.00,,---,0.00,VWS V14.01,2013-01-17 22:31:00,
2013-01-17 17:36:00,34.8,25.3,30.31,NNW,329,7.0,21.0,68,0.00,,---,0.00,VWS V14.01,2013-01-17 22:36:00,
2013-01-17 17:41:00,34.6,25.1,30.31,NW,321,11.0,21.0,68,0.00,,---,0.00,VWS V14.01,2013-01-17 22:41:00,
2013-01-17 17:46:00,34.3,25.2,30.31,NW,326,6.0,21.0,69,0.00,,---,0.00,VWS V14.01,2013-01-17 22:46:00,
2013-01-17 17:51:00,34.0,25.3,30.32,NNW,329,5.0,21.0,70,0.00,,---,0.00,VWS V14.01,2013-01-17 22:51:00,
2013-01-17 17:56:00,33.7,25.3,30.33,NNW,335,5.0,21.0,71,0.00,,---,0.00,VWS V14.01,2013-01-17 22:56:00,
2013-01-17 18:00:00,33.7,25.3,30.33,NW,314,12.0,21.0,71,0.00,,---,0.00,VWS V14.01,2013-01-17 23:00:00,
2013-01-17 18:01:00,33.7,25.0,30.33,NW,314,10.0,15.0,70,0.00,,---,0.00,VWS V14.01,2013-01-17 23:01:00,
2013-01-17 18:06:00,33.8,24.7,30.33,NW,324,8.0,15.0,69,0.00,,---,0.00,VWS V14.01,2013-01-17 23:06:00,
2013-01-17 18:11:00,33.5,25.1,30.33,NNW,338,7.0,16.0,71,0.00,,---,0.00,VWS V14.01,2013-01-17 23:11:00,
2013-01-17 18:16:00,33.4,24.7,30.34,NNW,339,9.0,16.0,70,0.00,,---,0.00,VWS V14.01,2013-01-17 23:16:00,
2013-01-17 18:21:00,33.3,24.6,30.34,NW,320,9.0,16.0,70,0.00,,---,0.00,VWS V14.01,2013-01-17 23:21:00,
2013-01-17 18:26:00,33.2,23.8,30.35,NW,318,11.0,16.0,68,0.00,,---,0.00,VWS V14.01,2013-01-17 23:26:00,
2013-01-17 18:31:00,33.0,23.2,30.35,NNW,330,7.0,19.0,67,0.00,,---,0.00,VWS V14.01,2013-01-17 23:31:00,
2013-01-17 18:36:00,32.7,23.0,30.35,NNW,333,12.0,19.0,67,0.00,,---,0.00,VWS V14.01,2013-01-17 23:36:00,
2013-01-17 18:41:00,32.8,22.7,30.36,NW,322,9.0,19.0,66,0.00,,---,0.00,VWS V14.01,2013-01-17 23:41:00,
2013-01-17 18:47:00,32.5,22.8,30.36,NNW,343,9.0,19.0,67,0.00,,---,0.00,VWS V14.01,2013-01-17 23:47:00,
2013-01-17 18:52:00,32.4,22.7,30.37,NW,326,7.0,19.0,67,0.00,,---,0.00,VWS V14.01,2013-01-17 23:52:00,
2013-01-17 18:57:00,32.3,22.6,30.37,NW,320,6.0,19.0,67,0.00,,---,0.00,VWS V14.01,2013-01-17 23:57:00,
2013-01-17 19:00:00,32.1,22.8,30.37,NW,323,6.0,19.0,68,0.00,,---,0.00,VWS V14.01,2013-01-18 00:00:00,
2013-01-17 19:02:00,32.0,22.6,30.37,NW,318,7.0,8.0,68,0.00,,---,0.00,VWS V14.01,2013-01-18 00:02:00,
2013-01-17 19:07:00,31.8,22.5,30.37,NNW,335,11.0,11.0,68,0.00,,---,0.00,VWS V14.01,2013-01-18 00:07:00,
2013-01-17 19:12:00,31.7,22.4,30.37,NNW,335,4.0,11.0,68,0.00,,---,0.00,VWS V14.01,2013-01-18 00:12:00,
2013-01-17 19:17:00,31.5,22.2,30.37,NNW,329,4.0,11.0,68,0.00,,---,0.00,VWS V14.01,2013-01-18 00:17:00,
2013-01-17 19:22:00,31.4,22.4,30.38,NW,318,4.0,11.0,69,0.00,,---,0.00,VWS V14.01,2013-01-18 00:22:00,
2013-01-17 19:27:00,31.3,22.3,30.38,NW,322,5.0,11.0,69,0.00,,---,0.00,VWS V14.01,2013-01-18 00:27:00,
2013-01-17 19:32:00,31.3,21.6,30.39,NNW,330,5.0,12.0,67,0.00,,---,0.00,VWS V14.01,2013-01-18 00:32:00,
2013-01-17 19:37:00,31.2,21.5,30.39,NW,305,9.0,12.0,67,0.00,,---,0.00,VWS V14.01,2013-01-18 00:37:00,
2013-01-17 19:42:00,31.2,21.9,30.39,NW,326,4.0,12.0,68,0.00,,---,0.00,VWS V14.01,2013-01-18 00:42:00,
2013-01-17 19:47:00,30.9,21.9,30.39,NW,326,6.0,12.0,69,0.00,,---,0.00,VWS V14.01,2013-01-18 00:47:00,
2013-01-17 19:52:00,30.7,21.8,30.40,NNW,335,3.0,12.0,69,0.00,,---,0.00,VWS V14.01,2013-01-18 00:52:00,
2013-01-17 19:57:00,30.5,22.2,30.39,NW,323,4.0,12.0,71,0.00,,---,0.00,VWS V14.01,2013-01-18 00:57:00,
2013-01-17 20:00:00,30.4,22.1,30.39,NNW,330,7.0,12.0,71,0.00,,---,0.00,VWS V14.01,2013-01-18 01:00:00,
2013-01-17 20:02:00,30.4,22.1,30.40,NNW,337,6.0,6.0,71,0.00,,---,0.00,VWS V14.01,2013-01-18 01:02:00,
2013-01-17 20:07:00,30.2,22.3,30.40,NNW,330,6.0,8.0,72,0.00,,---,0.00,VWS V14.01,2013-01-18 01:07:00,
2013-01-17 20:12:00,30.1,21.9,30.40,NW,318,4.0,12.0,71,0.00,,---,0.00,VWS V14.01,2013-01-18 01:12:00,
2013-01-17 20:17:00,30.1,21.5,30.41,NNW,329,5.0,12.0,70,0.00,,---,0.00,VWS V14.01,2013-01-18 01:17:00,
2013-01-17 20:22:00,30.0,21.4,30.41,WNW,295,4.0,12.0,70,0.00,,---,0.00,VWS V14.01,2013-01-18 01:22:00,
2013-01-17 20:27:00,29.8,21.6,30.42,NW,322,4.0,12.0,71,0.00,,---,0.00,VWS V14.01,2013-01-18 01:27:00,
2013-01-17 20:32:00,29.8,21.6,30.42,NW,326,5.0,12.0,71,0.00,,---,0.00,VWS V14.01,2013-01-18 01:32:00,
2013-01-17 20:37:00,29.7,21.5,30.42,NNW,343,4.0,12.0,71,0.00,,---,0.00,VWS V14.01,2013-01-18 01:37:00,
2013-01-17 20:42:00,29.6,21.7,30.42,NW,326,4.0,12.0,72,0.00,,---,0.00,VWS V14.01,2013-01-18 01:42:00,
2013-01-17 20:47:00,29.4,20.8,30.42,NW,324,6.0,12.0,70,0.00,,---,0.00,VWS V14.01,2013-01-18 01:47:00,
2013-01-17 20:52:00,29.5,20.6,30.43,North,356,9.0,12.0,69,0.00,,---,0.00,VWS V14.01,2013-01-18 01:52:00,
2013-01-17 20:57:00,29.4,20.2,30.43,NNW,330,4.0,12.0,68,0.00,,---,0.00,VWS V14.01,2013-01-18 01:57:00,
2013-01-17 21:00:00,29.3,20.8,30.43,NW,323,4.0,12.0,70,0.00,,---,0.00,VWS V14.01,2013-01-18 02:00:00,
2013-01-17 21:02:00,29.2,21.0,30.43,NNW,335,5.0,7.0,71,0.00,,---,0.00,VWS V14.01,2013-01-18 02:02:00,
2013-01-17 21:07:00,29.0,20.8,30.43,NNW,329,4.0,8.0,71,0.00,,---,0.00,VWS V14.01,2013-01-18 02:07:00,
2013-01-17 21:12:00,28.8,20.6,30.44,NNW,335,4.0,8.0,71,0.00,,---,0.00,VWS V14.01,2013-01-18 02:12:00,
2013-01-17 21:17:00,28.7,20.2,30.44,NW,326,5.0,8.0,70,0.00,,---,0.00,VWS V14.01,2013-01-18 02:17:00,
2013-01-17 21:22:00,28.6,20.1,30.44,NW,318,5.0,9.0,70,0.00,,---,0.00,VWS V14.01,2013-01-18 02:22:00,
2013-01-17 21:27:00,28.5,20.0,30.44,NW,325,8.0,10.0,70,0.00,,---,0.00,VWS V14.01,2013-01-18 02:27:00,
2013-01-17 21:32:00,28.4,19.5,30.44,NNW,337,8.0,10.0,69,0.00,,---,0.00,VWS V14.01,2013-01-18 02:32:00,
2013-01-17 21:37:00,28.3,19.5,30.45,NW,318,4.0,11.0,69,0.00,,---,0.00,VWS V14.01,2013-01-18 02:37:00,
2013-01-17 21:42:00,28.3,19.5,30.45,NW,312,4.0,11.0,69,0.00,,---,0.00,VWS V14.01,2013-01-18 02:42:00,
2013-01-17 21:47:00,28.1,19.6,30.45,North,349,8.0,11.0,70,0.00,,---,0.00,VWS V14.01,2013-01-18 02:47:00,
2013-01-17 21:52:00,28.1,19.3,30.45,NNW,330,4.0,11.0,69,0.00,,---,0.00,VWS V14.01,2013-01-18 02:52:00,
2013-01-17 21:57:00,28.0,19.5,30.45,North,1,1.0,11.0,70,0.00,,---,0.00,VWS V14.01,2013-01-18 02:57:00,
2013-01-17 22:00:00,27.8,19.3,30.45,NNW,341,1.0,11.0,70,0.00,,---,0.00,VWS V14.01,2013-01-18 03:00:00,
2013-01-17 22:02:00,27.6,19.4,30.45,North,11,2.0,2.0,71,0.00,,---,0.00,VWS V14.01,2013-01-18 03:02:00,
2013-01-17 22:07:00,27.4,19.2,30.46,NNW,345,2.0,5.0,71,0.00,,---,0.00,VWS V14.01,2013-01-18 03:07:00,
2013-01-17 22:12:00,27.3,19.1,30.46,North,352,2.0,5.0,71,0.00,,---,0.00,VWS V14.01,2013-01-18 03:12:00,
2013-01-17 22:17:00,27.1,19.3,30.46,North,358,2.0,5.0,72,0.00,,---,0.00,VWS V14.01,2013-01-18 03:17:00,
2013-01-17 22:22:00,27.0,18.9,30.46,NNW,345,4.0,7.0,71,0.00,,---,0.00,VWS V14.01,2013-01-18 03:22:00,
2013-01-17 22:27:00,26.9,18.4,30.46,NNW,345,3.0,7.0,70,0.00,,---,0.00,VWS V14.01,2013-01-18 03:27:00,
2013-01-17 22:32:00,26.9,18.8,30.46,NNW,340,3.0,8.0,71,0.00,,---,0.00,VWS V14.01,2013-01-18 03:32:00,
2013-01-17 22:37:00,26.7,18.6,30.46,North,9,6.0,8.0,71,0.00,,---,0.00,VWS V14.01,2013-01-18 03:37:00,
2013-01-17 22:42:00,26.7,18.6,30.47,NNW,335,3.0,8.0,71,0.00,,---,0.00,VWS V14.01,2013-01-18 03:42:00,
2013-01-17 22:47:00,26.6,18.5,30.47,NNW,345,4.0,8.0,71,0.00,,---,0.00,VWS V14.01,2013-01-18 03:47:00,
2013-01-17 22:52:00,26.5,18.4,30.47,NNW,329,4.0,8.0,71,0.00,,---,0.00,VWS V14.01,2013-01-18 03:52:00,
2013-01-17 22:57:00,26.3,18.2,30.48,NNW,330,5.0,8.0,71,0.00,,---,0.00,VWS V14.01,2013-01-18 03:57:00,
2013-01-17 23:00:00,26.3,18.2,30.48,NNW,338,3.0,8.0,71,0.00,,---,0.00,VWS V14.01,2013-01-18 04:00:00,
2013-01-17 23:02:00,26.3,18.2,30.48,NNW,335,3.0,6.0,71,0.00,,---,0.00,VWS V14.01,2013-01-18 04:02:00,
2013-01-17 23:07:00,26.1,18.6,30.48,NW,322,5.0,6.0,73,0.00,,---,0.00,VWS V14.01,2013-01-18 04:07:00,
2013-01-17 23:12:00,26.0,18.5,30.48,NW,322,4.0,6.0,73,0.00,,---,0.00,VWS V14.01,2013-01-18 04:12:00,
2013-01-17 23:17:00,25.9,18.5,30.48,NW,315,2.0,6.0,73,0.00,,---,0.00,VWS V14.01,2013-01-18 04:17:00,
2013-01-17 23:22:00,25.8,18.4,30.49,NW,309,2.0,6.0,73,0.00,,---,0.00,VWS V14.01,2013-01-18 04:22:00,
2013-01-17 23:27:00,25.7,18.3,30.49,NW,315,3.0,6.0,73,0.00,,---,0.00,VWS V14.01,2013-01-18 04:27:00,
2013-01-17 23:32:00,25.7,18.3,30.49,NW,314,3.0,6.0,73,0.00,,---,0.00,VWS V14.01,2013-01-18 04:32:00,
2013-01-17 23:37:00,25.6,18.2,30.48,NW,326,2.0,6.0,73,0.00,,---,0.00,VWS V14.01,2013-01-18 04:37:00,
2013-01-17 23:42:00,25.5,18.4,30.49,NNW,330,2.0,6.0,74,0.00,,---,0.00,VWS V14.01,2013-01-18 04:42:00,
2013-01-17 23:47:00,25.4,18.3,30.49,NW,315,2.0,6.0,74,0.00,,---,0.00,VWS V14.01,2013-01-18 04:47:00,
2013-01-17 23:52:00,25.3,18.2,30.49,NW,314,1.0,6.0,74,0.00,,---,0.00,VWS V14.01,2013-01-18 04:52:00,
2013-01-17 23:57:00,25.1,18.3,30.49,NW,314,2.0,6.0,75,0.00,,---,0.00,VWS V14.01,2013-01-18 04:57:00,